Location: Croix-sur-Ourcq
(49.1679°N, 3.3540°E)
Time: 20:10:53
(UTC+00:00)

Daily predictions for brighter satellites

Satellite Brightness Start Highest point End
(mag) Time Altitude Azimuth Time Altitude Azimuth Time Altitude Azimuth
Cosmos 2016 Rocket 4.1 16:25:34 10° S 16:31:52 76° E 16:38:14 10° NNE
CBERS-1 4.0 16:29:12 10° SSE 16:34:19 83° ENE 16:39:28 10° NNW
Tsikada Rocket 4.1 16:28:48 10° N 16:35:14 69° ENE 16:41:33 10° SSE
Cosmos 2084 Rocket 3.6 16:34:57 10° SW 16:39:07 70° NW 16:43:19 10° NE
SMAP 3.2 16:37:37 10° SE 16:42:08 53° ENE 16:46:41 10° N
Cosmos 44 Rocket 4.3 16:39:05 10° S 16:43:08 28° ESE 16:47:18 10° ENE
Cosmos 540 Rocket 3.7 16:39:16 10° NNW 16:44:15 48° ENE 16:49:11 10° SE
SJ 16-02 3.1 16:43:50 10° ESE 16:45:47 13° E 16:47:45 10° ENE
Cosmos 1869 3.8 16:44:27 10° SSE 16:47:33 29° E 16:50:38 10° NNE
YAOGAN 1 4.1 16:46:24 10° E 16:48:59 16° ENE 16:51:35 10° NNE
IGS 5A 3.3 16:45:15 10° SSE 16:49:13 89° ESE 16:53:13 10° NNW
Cosmos 1763 Rocket 3.5 16:47:32 10° NNW 16:52:45 65° ENE 16:57:51 10° SSE
SL-16 R/B 2.7 16:46:40 10° NNE 16:52:58 84° WNW 16:59:13 10° SSW
Landsat 7 3.9 16:49:48 10° SE 16:54:18 51° ENE 16:58:49 10° N
SAR-Lupe-5 4.3 16:52:21 10° NNE 16:54:58 84° WNW 16:57:38 10° SSW
Timation 1 Rocket 4.3 16:52:23 10° NNW 16:58:21 70° ENE 17:04:18 10° SE
RESURS DK-1 2.2 16:54:25 10° NNW 16:58:25 69° ENE 17:02:23 10° SE
Cosmos 1140 Rocket 3.5 16:54:09 10° SSW 16:59:19 87° WNW 17:04:31 10° NNE
Aureole 3 Rocket 3.4 16:58:06 10° SE 17:00:37 24° E 17:03:19 10° NNE
CZ-4C R/B 3.4 16:56:40 10° W 17:00:53 29° NNW 17:06:09 10° NE
UNK 3.7 17:01:18 10° NNE 17:05:57 76° ESE 17:10:32 10° S
Meteor 1-28 Rocket 3.6 17:02:45 10° N 17:06:05 56° WNW 17:09:22 10° SSW
Meteor 2-12 Rocket 4.4 17:03:08 10° N 17:09:15 71° ENE 17:15:17 10° SSE
Cosmos 1400 Rocket 4.1 17:07:20 10° SE 17:10:02 19° E 17:11:08 17° ENE
SJ-12 3.6 17:06:53 10° SSE 17:10:38 69° ENE 17:14:25 10° N
Cosmos 1536 Rocket 4.3 17:07:52 10° N 17:11:51 31° ENE 17:15:47 10° SE
SAR-Lupe-3 4.0 17:13:47 15° NNE 17:15:47 45° E 17:18:20 10° S
Helios 1A Rocket 4.3 17:16:48 14° ESE 17:16:48 14° ESE 17:18:00 10° SE
Okean 2 Rocket 4.1 17:13:53 10° SE 17:17:25 24° E 17:20:03 14° NE
IRS-1C 4.2 17:16:26 10° SSE 17:21:45 84° WSW 17:27:07 10° NNW
ATLAS CENTAUR R/B 3.5 17:23:38 10° NW 17:25:02 12° NNW 17:26:27 10° N
SL-12 R/B(2) 4.3 17:18:12 10° SSW 17:26:08 76° SE 17:35:47 10° NE
COSMO-SKYMED 1 3.5 17:26:49 22° ENE 17:27:52 25° E 17:31:16 10° SSE
Resurs 01 Rocket 3.4 17:30:11 15° NE 17:30:11 15° NE 17:31:36 10° NNE
Cosmos 1943 Rocket 2.1 17:24:11 10° SSW 17:29:47 77° ESE 17:35:17 10° NNE
Timation 2 Rocket 4.2 17:24:15 10° SSW 17:31:08 82° ESE 17:38:00 10° NNE
Cosmos 841 Rocket 3.8 17:28:26 10° NNW 17:33:27 42° ENE 17:38:25 10° SE
Cosmos 2251 Rocket 3.6 17:28:42 10° S 17:33:51 57° ESE 17:38:36 13° NNE
Cosmos 2058 2.7 17:29:58 10° N 17:33:55 67° ENE 17:37:53 10° SSE
BREEZE-M DEB (TANK) 2.3 17:34:39 10° WSW 17:37:09 68° SSE 17:39:49 25° E
Cosmos 2082 Rocket 2.1 17:33:00 10° NNW 17:38:40 83° ENE 17:44:17 10° SSE
ATLAS 2AS CENTAUR R/B 3.3 17:32:47 10° NW 17:39:00 36° NNE 17:42:14 24° ENE
Cosmos 1346 Rocket 4.3 17:37:15 10° N 17:38:39 18° NNE 17:38:39 18° NNE
Cosmos 2278 Rocket 2.2 17:37:37 10° SSW 17:43:17 90° ESE 17:48:33 12° NNE
IRAS Rocket 4.2 17:37:54 10° SE 17:43:21 59° ENE 17:48:47 10° N
Cosmos 1602 3.1 17:42:07 10° NNW 17:45:12 80° W 17:48:15 10° S
MOS 1 Rocket 3.1 17:41:09 10° SSE 17:45:29 87° WSW 17:50:04 10° NNW
Cosmos 468 Rocket 4.0 17:42:38 10° NNW 17:47:52 82° WSW 17:53:00 10° SSE
Cosmos 1464 Rocket 3.9 17:43:42 10° S 17:49:55 66° E 17:56:05 10° NNE
ARIANE 5 R/B 3.5 17:45:45 10° S 17:50:32 47° W 17:55:23 10° NNW
CZ-2D R/B 3.3 17:47:07 10° SSE 17:51:15 75° ENE 17:55:29 10° N
Cosmos 2369 Rocket 4.1 17:49:32 10° SE 17:50:08 12° SE 17:50:08 12° SE
USA 215 4.0 17:48:39 10° SSE 17:54:59 52° SW 18:01:22 10° WNW
Cosmos 1862 2.9 17:52:42 10° N 17:56:21 87° ENE 17:59:59 10° S
PSLV R/B 3.3 17:53:05 10° SSE 17:57:03 61° ENE 18:01:03 10° N
Geosat FO 4.4 17:57:42 25° SSE 17:59:08 61° WSW 18:02:00 10° NW
Cosmos 2151 Rocket 3.5 17:56:00 10° S 18:00:29 80° E 18:05:01 10° NNE
Cosmos 1190 Rocket 3.9 17:56:21 10° SSW 18:01:38 81° ESE 18:05:26 20° NNE
ISS -3.8 18:00:24 10° WSW 18:03:45 74° NNW 18:03:52 72° N
Cosmos 2034 Rocket 4.0 17:57:51 10° S 18:03:53 57° E 18:10:01 10° NNE
Cosmos 676 Rocket 4.1 17:59:37 10° S 18:04:46 55° ESE 18:06:42 35° NE
Cosmos 1812 3.4 18:02:02 10° SSW 18:04:46 38° WNW 18:06:21 20° NNW
Okean 1 Rocket 3.0 18:02:51 10° S 18:07:11 61° E 18:08:25 42° NE
Cosmos 1656 Rocket 4.0 18:02:16 10° S 18:07:25 41° ESE 18:07:59 40° E
SKYMED 2 3.5 18:03:51 14° NNE 18:07:33 88° ESE 18:11:54 10° SSW
Cosmos 220 Rocket 4.4 18:08:09 10° NNW 18:11:16 41° NNE 18:11:16 41° NNE
USA 281 3.6 18:11:29 36° ENE 18:12:53 40° NE 18:18:56 10° NNW
Sich 1 Rocket 3.5 18:08:24 10° S 18:12:55 71° E 18:14:56 33° NNE
Cosmos 1954 Rocket 3.9 18:08:47 10° SSW 18:14:04 83° ESE 18:16:53 28° NNE
COSMOS 2406 3.1 18:08:38 10° NNW 18:14:21 86° ENE 18:19:01 16° SSE
Cosmos 1092 Rocket 4.0 18:10:13 10° N 18:16:24 56° ENE 18:22:27 10° SSE
BlueWalker 3 4.0 18:14:35 10° S 18:15:40 16° S 18:15:40 16° S
SL-19 R/B 4.0 18:13:22 10° SSE 18:18:35 84° WSW 18:23:51 10° NNW
Cosmos 2026 Rocket 3.8 18:15:20 10° N 18:21:25 68° ENE 18:27:32 10° SSE
SJ 16-02 1.4 18:18:59 10° SSW 18:23:18 75° WNW 18:24:29 46° N
Cosmos 44 Rocket 3.9 18:19:35 10° WSW 18:24:17 53° NW 18:26:14 33° NNE
YAOGAN 1 2.8 18:20:06 10° S 18:24:21 69° WSW 18:28:36 10° NNW
SPOT 1/Viking Rocket 4.2 18:21:03 10° S 18:26:07 55° W 18:31:14 10° NNW
Cosmos 2344 3.8 18:24:25 10° NW 18:32:18 80° NE 18:38:34 27° SE
Cosmos 2297 Rocket 4.4 18:32:21 10° N 18:33:09 11° NNE 18:33:09 11° NNE
Meteor 2-3 Rocket 3.7 18:31:37 10° NNW 18:37:21 84° W 18:42:59 10° S
Resurs 1-3 4.3 18:34:42 10° S 18:38:53 52° W 18:43:07 10° NNW
Cosmos 1400 Rocket 4.1 18:41:41 10° SW 18:45:15 37° WNW 18:45:47 35° NW
Cosmos 304 Rocket 4.1 18:43:29 10° SW 18:48:09 60° WNW 18:48:47 55° NNW
Cosmos 371 Rocket 3.7 18:45:15 10° SW 18:50:00 61° WNW 18:50:35 56° NNW
CZ-4C R/B 4.0 18:46:47 10° NW 18:51:06 22° N 18:51:50 21° NNE
Okean 2 Rocket 4.4 18:51:05 10° SW 18:55:11 38° WNW 18:57:20 23° NNW
COSMO-SKYMED 1 3.9 19:03:11 35° WNW 19:03:15 35° WNW 19:07:01 10° SW
Resurs 01 Rocket 3.7 19:07:36 20° NNW 19:07:36 20° NNW 19:09:02 10° NNW
Geosat 4.4 19:05:28 59° WSW 19:05:29 59° WSW 19:10:27 10° NW
BREEZE-M DEB (TANK) 3.9 19:08:38 10° W 19:11:47 73° W 19:11:47 73° W
Cosmos 1943 Rocket 4.1 19:09:36 10° W 19:14:08 24° NW 19:16:48 17° N
Cosmos 2278 Rocket 4.3 19:23:49 10° W 19:28:09 22° NW 19:30:23 18° N
ATLAS 2AS CENTAUR R/B 2.8 19:23:46 10° NW 19:29:41 69° WNW 19:29:41 69° WNW
Cosmos 2369 Rocket 4.2 19:30:43 10° SSW 19:31:59 17° SSW 19:31:59 17° SSW
USA 281 4.0 19:58:22 48° WNW 19:58:22 48° WNW 20:03:41 10° NNW
SJ 16-02 4.5 20:00:31 10° WNW 20:01:04 11° WNW 20:01:04 11° WNW
